Home > Weather > Stuhr > Past weeks

Flag for Germany Weather for the Past 2 Weeks in Stuhr, Lower Saxony, Germany

Now
34 °F

Light snow. Mostly cloudy.


Feels Like: 26 °F
Forecast: 26 / 35 °F
Wind: 10 mph from Northeast

Location: Bremen Airport

Current Time: Feb 14, 2016 at 8:03:24 PM

Latest Report: Feb 14, 2016 at 7:20 PM


Visibility: 2 mi

Pressure: 29.39 "Hg

Humidity: 93%

Dew point: 32 °F

Location of StuhrLocation

Historic Weather in Stuhr — Graph

°F

Stuhr Temperature Yesterday

Maximum temperature yesterday: 39 °F (at 2:20 PM)
Minimum temperature yesterday: 28 °F (at 8:20 AM)
Average temperature yesterday: 33 °F

High & Low Weather Summary for the Past Weeks

 TemperatureHumidityPressure
High54 °F (Feb 1, 8:20 PM)100% (Feb 1, 12:20 AM)30.24 "Hg (Feb 1, 12:20 AM)
Low28 °F (Feb 12, 6:20 AM)61% (Feb 3, 1:20 PM)28.74 "Hg (Feb 9, 8:20 PM)
Average41 °F85%29.60 "Hg
* Reported Jan 30 6:20 PM — Feb 14 6:50 PM, Stuhr, Weather by CustomWeather, © 2016

Note: Actual official high and low records may vary slightly from our data, if they occured in-between our weather recording intervals... More about our weather records

Advertising

Stuhr Weather History for the Previous 24 Hours

 ConditionsComfort  
Time TempWeatherWind HumidityBarometerVisibility
6:50 PM
Sun, Feb 14
34 °FLight snow. Passing clouds.12 mph93%29.39 "Hg2 mi
6:20 PM34 °FLight rain. Passing clouds.13 mph100%29.36 "Hg3 mi
5:50 PM36 °FLight rain. Passing clouds.9 mph93%29.36 "Hg2 mi
5:20 PM36 °FLight rain. Partly sunny.13 mph93%29.33 "Hg2 mi
4:50 PM36 °FLight rain. Partly sunny.13 mph93%29.30 "Hg2 mi
4:20 PM36 °FLight rain. Partly sunny.12 mph93%29.30 "Hg2 mi
3:50 PM36 °FLight rain. Partly sunny.12 mph93%29.27 "Hg2 mi
3:20 PM36 °FLight rain. Partly sunny.12 mph93%29.27 "Hg3 mi
2:50 PM36 °FLight rain. Partly sunny.10 mph93%29.27 "Hg3 mi
2:20 PM36 °FBroken clouds.12 mph93%29.27 "Hg4 mi
1:50 PM36 °FLight rain. Fog.13 mph93%29.24 "Hg3 mi
1:20 PM36 °FLight rain. Fog.12 mph93%29.24 "Hg3 mi
12:50 PM34 °FLight rain. Fog.13 mph100%29.24 "Hg2 mi
12:20 PM34 °FLight snow. Fog.13 mph100%29.24 "Hg2 mi
11:50 AM34 °FLight snow. Fog.14 mph93%29.21 "Hg2 mi
11:20 AM34 °FLight snow. Fog.14 mph93%29.21 "Hg2 mi
10:50 AM34 °FLight snow. Fog.13 mph93%29.21 "Hg2 mi
10:20 AM34 °FLight snow. Fog.14 mph93%29.21 "Hg2 mi
9:50 AM32 °FLight snow. Ice fog.12 mph100%29.21 "Hg2 mi
9:20 AM32 °FLight snow. Ice fog.13 mph100%29.18 "Hg1 mi
8:20 AM32 °FLight snow. Ice fog.14 mph100%29.18 "Hg1 mi
7:50 AM32 °FLight snow. Ice fog.15 mph100%29.18 "Hg2 mi
7:20 AM34 °FLight snow. Fog.14 mph93%29.18 "Hg3 mi
6:50 AM34 °FLight snow. Fog.17 mph93%29.15 "Hg3 mi
6:20 AM34 °FLight rain. Passing clouds.14 mph93%29.15 "Hg4 mi
5:50 AM34 °FLight rain. Passing clouds.17 mph93%29.15 "Hg4 mi
5:20 AM36 °FLight rain. Passing clouds.15 mph87%29.15 "Hg4 mi
4:50 AM36 °FLight rain. Passing clouds.16 mph87%29.15 "Hg4 mi
4:20 AM36 °FLight rain. Passing clouds.16 mph87%29.15 "Hg4 mi
3:50 AM34 °FLight rain. Passing clouds.15 mph93%29.15 "Hg3 mi
3:20 AM34 °FPassing clouds.16 mph93%29.15 "Hg3 mi
2:20 AM36 °FPassing clouds.14 mph87%29.15 "Hg5 mi
1:50 AM36 °FPassing clouds.13 mph87%29.15 "HgN/A
1:20 AM37 °FPassing clouds.14 mph81%29.18 "HgN/A
12:50 AM37 °FPassing clouds.15 mph81%29.18 "HgN/A
12:20 AM37 °FPassing clouds.13 mph81%29.18 "HgN/A
11:50 PM
Sat, Feb 13
36 °FClear.14 mph87%29.18 "Hg10 mi
11:20 PM36 °FPartly cloudy.13 mph87%29.18 "HgN/A
10:50 PM36 °FPassing clouds.15 mph87%29.21 "HgN/A
10:20 PM36 °FPassing clouds.13 mph87%29.21 "HgN/A
9:50 PM37 °FPassing clouds.13 mph81%29.21 "HgN/A
9:20 PM36 °FClear.13 mph87%29.21 "Hg10 mi
8:50 PM36 °FClear.13 mph87%29.21 "Hg10 mi
8:20 PM36 °FClear.13 mph93%29.24 "Hg10 mi
Weather by CustomWeather, © 2016

See weather overviewHow to use our weather pages